This demonstration page uses our WeatherBlox Daily Observations layout. Learn more.

Left ArrowRight Arrow

Hourly Observations for September 24, 2022

Temp ( °F °C ) Dew Point ( °F °C ) Humidity (%) Winds ( mph kmh ) Pressure ( in mb ) Visibility ( mi km ) Precip ( " mm )
12:53 am 00:53 Clear 71 21.7 50 10 47 47 SE 12 19 29.91 1013 10 16 0.00 0.00
1:53 am 01:53 Clear 71 21.7 51 10.6 49 49 SE 10 17 29.90 1012 10 16 0.00 0.00
2:53 am 02:53 Clear 69 20.6 51 10.6 53 53 ESE 9 15 29.89 1012 10 16 0.00 0.00
3:53 am 03:53 Clear 67 19.4 51 10.6 57 57 ESE 9 15 29.88 1012 10 16 0.00 0.00
4:53 am 04:53 Clear 68 20 51 10.6 55 55 ESE 10 17 29.88 1012 10 16 0.00 0.00
5:53 am 05:53 Clear 67 19.4 51 10.6 57 57 ESE 7 11 29.88 1012 10 16 0.00 0.00
6:53 am 06:53 Clear 65 18.3 51 10.6 61 61 ESE 6 9 29.89 1012 10 16 0.00 0.00
7:53 am 07:53 Sunny 61 16.1 52 11.1 72 72 E 6 9 29.92 1013 10 16 0.00 0.00
8:53 am 08:53 Sunny with Light Rain 67 19.4 53 11.7 61 61 ESE 9 15 29.94 1014 10 16 0.01 0.13
9:53 am 09:53 Sunny 73 22.8 53 11.7 50 50 SSE 10 17 29.93 1013 10 16 0.01 0.13
10:53 am 10:53 Sunny 78 25.6 54 12.2 43 43 SSE 10 17 29.94 1014 10 16 0.01 0.13
11:53 am 11:53 Sunny 82 27.8 53 11.7 37 37 SE 7 11 29.93 1014 10 16 0.01 0.13
12:53 pm 12:53 Sunny with Light Rain 86 30 51 10.6 30 30 VRB 6 9 29.92 1013 10 16 0.01 0.13
1:53 pm 13:53 Sunny 89 31.7 51 10.6 27 27 VRB 6 9 29.89 1012 10 16 0.01 0.13
2:53 pm 14:53 Sunny 92 33.3 50 10 24 24 VRB 5 7 29.86 1011 10 16 0.01 0.13
3:53 pm 15:53 Sunny 93 33.9 50 10 23 23 Calm 29.84 1011 10 16 0.01 0.13
4:53 pm 16:53 Sunny with Light Rain 93 33.9 49 9.4 22 22 SSE 7 11 29.82 1010 10 16 0.01 0.13
5:53 pm 17:53 Sunny 93 33.9 50 10 23 23 E 6 9 29.81 1010 10 16 0.01 0.13
6:53 pm 18:53 Sunny 92 33.3 49 9.4 23 23 SE 5 7 29.81 1010 10 16 0.00 0.00
7:53 pm 19:53 Clear 87 30.6 45 7.2 23 23 SE 9 15 29.83 1010 10 16 0.00 0.00
8:53 pm 20:53 Clear 83 28.3 45 7.2 26 26 SE 9 15 29.84 1011 10 16 0.00 0.00
9:53 pm 21:53 Mostly Clear 80 26.7 47 8.3 31 31 SE 9 15 29.85 1011 10 16 0.00 0.00
10:53 pm 22:53 Clear 77 25 50 10 39 39 SE 9 15 29.87 1011 10 16 0.00 0.00
11:53 pm 23:53 Clear 77 25 52 11.1 42 42 SSE 13 20 29.86 1011 10 16 0.00 0.00

Powered by AerisWeather